OpenBCM V1.13 (Linux)

Packet Radio Mailbox

DB0FHN

[JN59NK Nuernberg]

 Login: GUEST





  
I0OJJ  > KEPS     17.02.26 02:33l 308 Lines 14717 Bytes #999 (0) @ AMSAT
BID : ORB26048.1
Read: OE5RCO DJ6UX GUEST
Subj: 2Line Orbital Elements 26048.AMSAT
Path: DB0FHN<DB0RKB<DK0WUE<PD0LPM<PI8ZTM<CX2SA<EA2RCF<I0OJJ
Sent: 260217/0021z @:I0OJJ.ITA.EU [Rome] obcm1.13-38-g65b7
From: I0OJJ @ I0OJJ.ITA.EU (Gustavo)
To:   KEPS @ AMSAT
X-Info: This message was generated automatically


QST de W1STR

AMSAT Orbital Elements for Amateur Satellites in TLE Format
From Orbital Analysis Office
New England Sci-Tech STEM Education Center
Natick MA February 17, 2026
To all radio amateurs


These element sets describe the orbits of various satellites 
in use by the amateur radio community. For details see:
www.amsat.org/keplerian-elements-formats/

A daily update of element sets is available at:
www.amsat.org/tle/daily-bulletin.txt
or without bulletin text:
www.amsat.org/tle/dailytle.txt


AO-07
1 07530U 74089B   26047.90000326 -.00000035  00000-0  73453-4 0  9997
2 07530 101.9971  59.8662 0012198   2.2254 114.8978 12.53695956345446
UO-11
1 14781U 84021B   26047.86188395  .00001914  00000-0  20203-3 0  9998
2 14781  97.7910  14.9131 0006546 212.7721 147.3092 14.90427076239200
AO-27
1 22825U 93061C   26047.72940052  .00000122  00000-0  63368-4 0  9991
2 22825  98.7028 115.1187 0009534  94.2239 266.0034 14.30905763689775
FO-29
1 24278U 96046B   26047.57604677  .00000031  00000-0  65615-4 0  9990
2 24278  98.5411 272.8485 0350630  49.4869 313.6264 13.53267238456859
GO-32
1 25397U 98043D   26047.87753234  .00000090  00000-0  58940-4 0  9997
2 25397  99.0001  37.6445 0001275 152.9965 207.1280 14.24400036434205
ISS
1 25544U 98067A   26047.86021543  .00009307  00000-0  17877-3 0  9990
2 25544  51.6319 175.3161 0011020 105.9454 254.2749 15.48651335553101
NO-44
1 26931U 01043C   26047.81355081  .00000182  00000-0  99063-4 0  9991
2 26931  67.0497 195.6005 0007021 265.8482  94.1818 14.31899975273219
SO-50
1 27607U 02058C   26047.64158509  .00001612  00000-0  20821-3 0  9990
2 27607  64.5520 141.8641 0074682 284.4791  74.8037 14.82696249246588
CO-55
1 27844U 03031E   26047.55848815  .00000334  00000-0  16365-3 0  9999
2 27844  98.6778  57.6204 0009756 169.4793 190.6592 14.24247683174502
CO-57
1 27848U 03031J   26047.55719244  .00000282  00000-0  14325-3 0  9992
2 27848  98.6806  57.4289 0009286 187.4924 172.6117 14.23545657174215
RS-22
1 27939U 03042A   26047.88396694  .00001534  00000-0  24591-3 0  9998
2 27939  98.3406 228.8688 0010298 293.2022 203.9648 14.73191746197837
CO-58
1 28895U 05043F   26047.37538847  .00002136  00000-0  34653-3 0  9994
2 28895  98.2787 200.6033 0013509 225.7637 134.2462 14.72220284 83970
CO-65
1 32785U 08021C   26047.88101617  .00007398  00000-0  48359-3 0  9996
2 32785  97.8169  26.9903 0011064  79.9334 280.3142 15.08053784967051
CO-66
1 32791U 08021J   26047.77682065  .00020729  00000-0  75731-3 0  9999
2 32791  97.7493  40.3572 0004651  49.2582 310.9060 15.28125732968873
RS-30
1 32953U 08025A   26047.86391279  .00000133  00000-0  88848-3 0  9997
2 32953  82.4986  70.2860 0018805 211.1233 148.8735 12.43175630804740
SRMSAT
1 37841U 11058D   26047.42412933  .00000437  00000-0  93449-4 0  9992
2 37841  19.9722  70.4089 0011556 316.1631 175.2869 14.11539431740733
ZACUBE-1
1 39417U 13066B   26047.85319563  .00006083  00000-0  48473-3 0  9995
2 39417  97.8191   9.5760 0040499 291.7740  67.9176 15.00079237662682
Delfi-N3xt
1 39428U 13066N   26047.70964510  .00008857  00000-0  80485-3 0  9999
2 39428  97.8352 328.2914 0075296 246.9787 112.3479 14.93316112656637
GOMX-1
1 39430U 13066Q   26047.84630435  .00001850  00000-0  28432-3 0  9993
2 39430  97.6578 255.8503 0130810 103.7710 257.8094 14.69008189652243
LO-74
1 39440U 13066AA  26047.85169125  .00005312  00000-0  50265-3 0  9994
2 39440  97.8784 356.5012 0060565  66.8456 293.9129 14.92684475659032
AO-73
1 39444U 13066AE  26047.66860281  .00009961  00000-0  65096-3 0  9990
2 39444  97.8143  16.8622 0035832 252.9954 106.7345 15.07487915661499
DTUSAT-2
1 40030U 14033W   26047.43429065  .00009999  00000-0  56817-3 0  9996
2 40030  98.0822  37.6940 0006272 293.8422  66.2150 15.13110615634416
EO-80
1 40032U 14033Y   26047.77073331  .00009547  00000-0  54062-3 0  9995
2 40032  98.0706  37.3546 0006233 213.0822 147.0018 15.13245870634449
LILACSAT-2
1 40908U 15049K   26047.88872172  .00018488  00000-0  36465-3 0  9998
2 40908  97.4839  80.4008 0006657 343.0245  17.0781 15.47219077577127
Horyu-4
1 41340U 16012D   26047.55765727  .00077531  00000-0  94155-3 0  9995
2 41340  30.9907 215.3821 0000886 211.4395 148.6204 15.59224836551800
Lapan A3
1 41603U 16040E   26047.86627381  .00004097  00000-0  13396-3 0  9990
2 41603  97.1461  48.0607 0012536  87.8077 272.4600 15.32185409536387
CAS-2T
1 41847U 16066G   26047.78679355  .00001722  00000-0  24898-3 0  9998
2 41847  98.3931 124.8641 0343739 134.6770 228.2985 14.44395550487412
TechnoSat
1 42829U 17042E   26047.67284920  .00004825  00000-0  35144-3 0  9995
2 42829  97.4091 210.0893 0018504 143.4098 216.8396 15.04070382468583
AO-91
1 43017U 17073E   26047.59736190  .00010623  00000-0  48334-3 0  9999
2 43017  97.4890 277.3419 0157740  24.7946 336.0759 15.10374222447176
S-Net D
1 43186U 18014G   26047.67759236  .00006947  00000-0  37161-3 0  9997
2 43186  97.5466 313.2719 0010294  77.9850 282.2536 15.15332885440501
S-Net B
1 43187U 18014H   26047.68677037  .00006888  00000-0  36869-3 0  9995
2 43187  97.5470 313.2639 0010911  73.6472 286.5959 15.15304907440507
S-Net A
1 43188U 18014J   26047.67703041  .00006869  00000-0  36738-3 0  9994
2 43188  97.5482 313.4412 0010838  74.7865 285.4565 15.15338737440507
S-Net C
1 43189U 18014K   26047.69001507  .00006838  00000-0  36603-3 0  9992
2 43189  97.5498 313.5100 0012159  67.7610 292.4910 15.15297061439052
Ten-Koh
1 43677U 18084G   26047.46243953  .00004003  00000-0  30770-3 0  9990
2 43677  98.0760 234.7613 0009893 161.6487 198.5096 15.02307845398033
PO-101
1 43678U 18084H   26047.84130042  .00001549  00000-0  13022-3 0  9990
2 43678  98.1046 239.0222 0009722 191.4835 168.6167 14.99850493398174
QO-100
1 43700U 18090A   26047.33008456  .00000149  00000-0  00000-0 0  9994
2 43700   0.0168 102.0395 0002616 270.0219 278.8897  1.00275425 26460
MinXSS-2
1 43758U 18099A   26047.72267616  .00031553  00000-0  81953-3 0  9996
2 43758  97.4683 121.1452 0007952 345.2214  14.8798 15.38873387395553
AO-95
1 43770U 18099N   26047.69940531  .00013249  00000-0  55157-3 0  9999
2 43770  97.4563 108.5427 0010215  58.3700 301.8532 15.23825074394854
SNUSat 2
1 43782U 18099AA  26047.13899065  .00009780  00000-0  45991-3 0  9996
2 43782  97.4249 102.4543 0010644   8.3351 351.8059 15.19731138394630
SnugLite
1 43784U 18099AC  26047.66922490  .00013052  00000-0  53750-3 0  9994
2 43784  97.4056 103.2795 0003010  24.7750 335.3632 15.24235253394941
ITASat 1
1 43786U 18099AE  26047.60763155  .00008194  00000-0  41317-3 0  9998
2 43786  97.4218 101.5641 0014260  57.8428 302.4187 15.17311915394618
EAGLET 1
1 43790U 18099AJ  26047.64155772  .00004589  00000-0  27135-3 0  9993
2 43790  97.4414 100.4819 0012451  48.0155 312.2134 15.11885750394118
ESEO
1 43792U 18099AL  26047.82909594  .00001413  00000-0  10681-3 0  9995
2 43792  97.4150  90.2997 0013151  32.6374 327.5662 15.03823351393710
JO-97
1 43803U 18099AX  26047.69048336  .00018265  00000-0  64073-3 0  9998
2 43803  97.4308 110.3756 0005557 350.6419   9.4717 15.29474837395188
Suomi 100
1 43804U 18099AY  26047.82601593  .00014065  00000-0  55894-3 0  9999
2 43804  97.4367 108.8268 0009997 352.9344   7.1751 15.25376550395056
ISAT
1 43879U 18111D   26047.73831888  .00052567  00000-0  98437-3 0  9997
2 43879  97.5911 335.3937 0007552  46.4495 313.7381 15.48494023392436
UWE-4
1 43880U 18111E   26047.74154337  .00031731  00000-0  83279-3 0  9995
2 43880  97.5864 331.2947 0011153  48.7618 311.4585 15.38520891392214
Sparrow
1 43881U 18111F   26047.80171498  .00060839  00000-0  10153-2 0  9991
2 43881  97.6120 339.6688 0007827  74.6943 285.5173 15.51729771392584
Prox-1
1 44339U 19036A   26047.77339372  .00016401  00000-0  17402-2 0  9990
2 44339  23.9939 196.6936 0007579  80.0086 280.1268 14.87356715355502
Taurus 1
1 44530U 19059C   26047.87417729  .00011260  00000-0  18643-2 0  9998
2 44530  98.6264 205.4577 0008175 326.8861  33.1831 14.70445604340953
TO-108
1 44881U 19093C   26047.81590272  .00000948  00000-0  11364-3 0  9999
2 44881  97.7658 122.9443 0014782 120.0435 240.2249 14.86289842333533
FloripaSat 1
1 44885U 19093G   26047.80589722  .00007680  00000-0  58384-3 0  9993
2 44885  97.7913 141.3064 0012039 116.9949 243.2506 15.02371572334566
RS-44
1 44909U 19096E   26047.52988374  .00000036  00000-0  91448-4 0  9995
2 44909  82.5172  59.8813 0218609  66.6189 295.7741 12.79747224286915
SALSAT
1 46495U 20068K   26047.52008123  .00010308  00000-0  38274-3 0  9993
2 46495  97.8836  43.4320 0010684  17.1968 342.9629 15.27727316296922
CSS (TIANHE-1)
1 48274U 21035A   26047.84789036  .00027454  00000-0  33611-3 0  9999
2 48274  41.4684 334.8883 0004198 119.2852 240.8407 15.59746659274354
CUTE
1 49263U 21088D   26047.71610909  .00038177  00000-0  39288-3 0  9994
2 49263  97.4259 138.7779 0003901  38.1413 322.0121 15.64770253243591
TeikyoSat 4
1 49396U 21102B   26047.65561742  .00002055  00000-0  13363-3 0  9993
2 49396  97.3822  81.7697 0011958 356.1320   3.9814 15.09009694234542
Z-Sat
1 49399U 21102E   26047.81298049  .00003812  00000-0  19460-3 0  9997
2 49399  97.3497  86.7731 0015549 311.6873  48.3030 15.17198896235182
KOSEN 1
1 49402U 21102H   26047.67937916  .00008681  00000-0  35067-3 0  9999
2 49402  97.3373  92.2229 0012531 273.4789  86.5015 15.24925477235642
HO-113
1 50466U 21131B   26047.88478042  .00000531  00000-0  17817-3 0  9995
2 50466  98.4985 140.9585 0005272  99.0720 261.1066 14.41221951217788
SNUGLITE 2
1 52899U 22065F   26047.62228873  .00001218  00000-0  24113-3 0  9991
2 52899  98.1990 192.8161 0008233  49.2280 310.9636 14.64068127193358
